Location: North Runcton
(52.7000°N, 0.4333°E)
Time: 17:57:34
(UTC+00:00)

SeaSat 1 - Pass Details

Date: 19 May 2025
Orbit: 738 x 740 km, 108.0° (Epoch: 23 June)

Event Time Altitude Azimuth Distance (km) Brightness Sun altitude
Exits shadow 21:36:48 16° 145° (SE) 1,883 3.9 -11.4°
Maximum altitude 21:40:47 86° 57° (ENE) 749 2.4 -11.7°
Drops below altitude 10° 21:45:43 10° 329° (NNW) 2,261 6.5 -12.1°
Sets 21:47:59 0° 329° (NNW) 3,188 7.9 -12.3°
